Regional Weather Roundup
Issued by NWS

Home | Current Version | Previous Version | Text Only | Print | Product List | Glossary On
Versions: 1 2 3 4 5 6 7 8 9 10 11 12 13 14 15 16 17 18 19 20 21 22 23 24 25 26 27 28 29 30 31 32 33 34 35 36 37 38 39 40 41 42 43 44 45 46 47 48 49 50
000
ASHW40 PHFO 041043
RWRHI

WEATHER ROUNDUP FOR HAWAII
NATIONAL WEATHER SERVICE HONOLULU HI
1200 AM HST FRI SEP 04 2015

THIS IS AN AUTOMATED REPORT THAT HAS NOT BEEN QUALITY CONTROLLED.

NOTE..."FAIR" INDICATES FEW OR NO CLOUDS BELOW 12,000 FEET WITH NO
SIGNIFICANT WEATHER AND/OR OBSTRUCTIONS TO VISIBILITY.

* - THESE SITES REPORT LIMITED FIELDS

HIZ001>004-041100-
KAUAI-NIIHAU-

CITY           SKY/WX    TMP DP  RH WIND       PRES   REMARKS
LIHUE APT      PTCLDY    77  74  90 W5        29.89F
PORT ALLEN*    NOT AVBL
POIPU*           N/A     77 N/A N/A E2          N/A
PRINCEVILLE*     N/A     77 N/A N/A MISG        N/A
KOKOLE POINT*  NOT AVBL
MOLOAA DAIRY*    N/A     79  73  83 S3G12       N/A
WAIMEA HTS*      N/A     77  72  83 NE5G10      N/A
PUU OPAE*        N/A     72  66  83 E6          N/A
PUU LUA*       NOT AVBL
MAKAHA RIDGE*    N/A     72  70  94 N2          N/A
$$

HIZ005>011-041100-
OAHU-

CITY           SKY/WX    TMP DP  RH WIND       PRES   REMARKS
HONOLULU       CLOUDY    78  72  81 N3        29.89S
KALAELOA       CLOUDY    77  74  90 CALM      29.91R
KANEOHE MCB    CLOUDY    77  74  90 CALM      29.87F
WHEELER FIELD  FAIR      74  72  95 NW1       29.90F
BELLOWS*         N/A    N/A N/A N/A W2          N/A
KAHUKU*          N/A    N/A N/A N/A NE2         N/A
WHEELER*       NOT AVBL
WAIANAE HARBOR NOT AVBL
DILLINGHAM*      N/A     73  72  94 MISG        N/A
KAHUKU TRN*      N/A     73  72  94 SE3G9       N/A
KAWAILOA*        N/A     73  68  83 NE1         N/A
KII*             N/A     77  73  88 CALM        N/A
MAKUA RANGE*     N/A     75  70  83 E5          N/A
OAHU FOREST NW   N/A     72  72 100 CALM        N/A
SCHOFIELD BRK* NOT AVBL
SCHOFIELD S*   NOT AVBL
WAIANAE VLY*     N/A     84  81  89 MISG        N/A  HX  98
KUAOKALA*        N/A     75  72  88 NE3         N/A
HONOULIUULI*   NOT AVBL
MOKUOLOE IS*     N/A    N/A N/A N/A MISG        N/A
PALEHUA*         N/A     70  66  88 E3          N/A
WAIAWA PHB*    NOT AVBL
$$

HIZ012>013-041100-
MOLOKAI-

CITY           SKY/WX    TMP DP  RH WIND       PRES   REMARKS
MOLOKAI AIRPT  CLEAR     74  73  97 CALM      29.91F
KALAUPAPA      NOT AVBL
MAKAPULAPAI*     N/A     79  73  83 E8G18       N/A
MOLOKAI 1*       N/A     72  70  94 NE1         N/A
PUU ALII*        N/A     64  64 100 SE1G7       N/A
$$

HIZ016-041100-
KAHOOLAWE-

CITY           SKY/WX    TMP DP  RH WIND       PRES   REMARKS
KAHOOLAWE*       N/A     73 N/A N/A E13G20      N/A
HAKIOAWA*        N/A     76  74  95 MISG      30.32F
HONOKANAIA*      N/A     81  74  78 NE8G15    29.83F
KANELOA*         N/A     77  73  88 NE10G20   29.98S
KEALIALALO*      N/A     77  73  88 SE12G18   29.89F
LUA MAKIKA*    NOT AVBL
$$

HIZ014>015-041100-
LANAI-

CITY           SKY/WX    TMP DP  RH WIND       PRES   REMARKS
LANAI CITY     FAIR      73  70  90 E6        29.96S
LANAI 1*         N/A     72  70  94 NE12G18     N/A
$$

HIZ017>028-041100-
MAUI-

CITY           SKY/WX    TMP DP  RH WIND       PRES   REMARKS
KAHULUI        CLOUDY    79  74  84 CALM      29.89F
KAPALUA-W MAUI NOT AVBL
HANA AIRPORT   MOCLDY    77  73  88 E1        29.92F
HANA*            N/A     81 N/A N/A SE3         N/A
HALEAKALA SUMM   N/A     48  45  87 E7          N/A
MAALAEA BAY*   NOT AVBL
HALEAKALA*     NOT AVBL
KAUPO GAP*       N/A     64  54  68 N3          N/A
KULA 1*          N/A     56  54  94 NE3         N/A
$$

HIZ023>026-041100-
BIG ISLAND OF HAWAII COAST AND LOWER SLOPES-

CITY           SKY/WX    TMP DP  RH WIND       PRES   REMARKS
KAILUA KONA    CLOUDY    81  75  82 SE7       29.88S
HILO           MOCLDY    76  73  91 SW6       29.90F
HONOKAA*       NOT AVBL
KAWAIHAE MWT*    N/A     81 N/A N/A NE8         N/A
KAWAIHAE*        N/A     82 N/A N/A MISG      29.86F
SOUTH POINT*     N/A     75 N/A N/A E6G12       N/A
UPOLU AIRPORT*   N/A    N/A N/A N/A E12G17      N/A
KAMUELA*       NOT AVBL
HAKALAU*         N/A     52  44  73 SW8         N/A
KALOKO-HONOKO*   N/A     79  73  83 NE3       29.86F
PALI 2*          N/A     66  63  88 NE10G17     N/A
KEALAKOMO*     NOT AVBL
KAUPULEHU*       N/A     75  68  78 SE7         N/A
KAPAPALA*        N/A     65  64  97 NW6         N/A
LOWER KAHUKU*    N/A     64  64 100 VRB1        N/A
PUHE CS*         N/A     81  72  74 NE2         N/A
PUHO CS*         N/A     74  70  88 NE3         N/A
PTA KEAMUKU*     N/A     64  61  88 CALM        N/A
WAIKOLOA*        N/A     73  68  83 E9          N/A
$$

HIZ027>028-041100-
BIG ISLAND OF HAWAII INTERIOR AND SUMMMITS-

CITY           SKY/WX    TMP DP  RH WIND       PRES   REMARKS
BRADSHAW FIELD CLEAR     54  51  91 SE3       30.27F
MK VISITOR CEN   N/A     50  37  62 NE3         N/A
MAUNA KEA*       N/A     37  32  81 S3          N/A
MAUNA LOA*       N/A     43  37  81 MISG        N/A
MAUNA LOA 1*   NOT AVBL
PTA KIPUKA*      N/A     57  57 100 SE3         N/A
PTA RANGE 17*    N/A     72  64  78 NE2G10      N/A
PTA WEST*        N/A     61  57  88 SE5         N/A
NENE CABIN*      N/A     54  45  71 VRB5        N/A
AHUMOA*          N/A     56  48  74 SE9         N/A
PTA PORTABLE*  NOT AVBL
PUU MALI*        N/A     59  52  77 SE3         N/A
$$

HIC003-041100-
NORTHWEST ISLANDS-

CITY           SKY/WX    TMP DP  RH WIND       PRES   REMARKS
MIDWAY ISLAND  CLEAR     82  75  78 E7        29.91F
MIDWAY NOS*      N/A     82 N/A N/A MISG      29.91S
FRENCH FRIGATE NOT AVBL
$$

PHZ110>124-180-041100-
BUOY REPORTS

STATION/POSITION TIME  TEMP    WIND        PRES    WAVE   SWELL
                       AIR SEA DIR/SP/G            HT/PER HT/DIR
                 (UTC) (F)     (DEG/KT/KT) (MB)    (FT/S) (FT/D)
BUOY 51001       0958   81 83  180/  4/  8 1011.8
BUOY 51101       1000   81 83  200/  2/  4 1011.4F   8/13   8/100
BUOY 51100       NOT AVBL
BUOY 51002       1000   83 84  100/  8/ 10 1011.4F   9/13   8/ 90
BUOY 51003       1000   81 85   90/  6/ 10 1011.5F   7/11   7/ 60
BUOY 51004       0944   82 83   30/ 14/ 16 1010.8F  11/14  11/ 80
BARBERS PT BUOY  NOT AVBL
WAIMEA BAY BUOY  1000      82                N/A     4/14   3/ 40
KAILUA BAY BUOY  1000      83                N/A     7/14   5/ 90
LANAI BUOY       NOT AVBL
BARBERS PT 2     1000      83                N/A     4/18   3/180
PAUWELA MAUI     1000      82                N/A     9/14   7/100
HILO             NOT AVBL
KANEOHE BAY BUOY 1000      83                N/A     5/ 9   3/ 70
HANALEI KAUAI    1000      83                N/A     8/14   7/ 90
KAHULUI HARBOR   1000   80 83  310/  7/  8 1011.8F
HONOLULU HARBOR  1000   78 83   CALM  /  1 1012.3F
KILO NALU        NOT AVBL
HILO HARBOR      1000   77 81  210/  3/  4 1012.2F
MOKUOLOE         1000   78 85  230/  2/  2 1012.4S
NAWILIWILI       1000   77 84  270/  4/  5 1012.2S
WHOTS BUOY       NOT AVBL
BUOY 51028       NOT AVBL
$$

......................KEY........................................
  SKY/WX - SKY CONDITIONS/PRESENT WEATHER
  TMP    - TEMPERATURE IN FAHRENHEIT
  DWPT   - DEWPOINT IN FAHRENHEIT
  RH     - RELATIVE HUMIDITY IN PERCENT
  WIND   - DIRECTION AND SPEED /MPH FOR ISLANDS...KTS FOR BUOYS/
  PRES   - MEAN SEA LEVEL PRESSURE IN INCHES OF HG
  VSB    - VISIBILITY IN MILES
  HX     - HEAT INDEX
  WCI    - WIND CHILL INDEX
  VRB    - VARIABLE WIND DIRECTION
  N/A    - NOT AVAILABLE



USA.gov is the U.S. government's official web portal to all federal, state and local government web resources and services.